Tracking 29892 objects as of 21-Nov-2024
HD Live streaming from Space Station
objects crossing your sky now

SL-6 R/B(2)

Track SL-6 R/B(2) now!


NORAD ID: 23645
Int'l Code: 1995-042D
Perigee: 1,439.4 km
Apogee: 39,174.9 km
Inclination: 64.7 °
Period: 722.8 minutes
Semi major axis: 26678 km
RCS: 6.7703 m2 (large)
Launch date: August 9, 1995
Source: Commonwealth of Independent States (former USSR) (CIS)
Launch site: PLESETSK MISSILE AND SPACE COMPLEX (PKMTR)

Note: This is a ROCKET BODY
Your satellite tracking list
Your tracking list is empty




NASA's NSSDC Master Catalog

Two Line Element Set (TLE):
1 23645U 95042D   24325.36311190  .00000903  00000-0  00000-0 0  9992
2 23645  64.6836  22.8488 7072375 277.0748  14.0237  1.99237000210497
Source of the keplerian elements: AFSPC